MDT,Max TemperatureF,Mean TemperatureF,Min TemperatureF,Max Dew PointF,MeanDew PointF,Min DewpointF,Max Humidity, Mean Humidity, Min Humidity, Max Sea Level PressureIn, Mean Sea Level PressureIn, Min Sea Level PressureIn, Max VisibilityMiles, Mean VisibilityMiles, Min VisibilityMiles, Max Wind SpeedMPH, Mean Wind SpeedMPH, Max Gust SpeedMPH,PrecipitationIn, CloudCover, Events, WindDirDegrees
2011-10-1,82,68,55,48,42,37,63,45,23,30.19,30.13,30.08,15,12,10,22,8,26,0.00,2,,140
2011-10-2,80,68,55,48,45,39,67,52,23,30.19,30.13,30.07,15,12,10,10,6,,0.00,2,,126
2011-10-3,80,65,50,55,47,43,88,58,28,30.15,30.09,29.98,15,12,10,16,6,20,0.04,3,,135
2011-10-4,73,64,55,54,49,43,88,62,38,30.02,29.91,29.80,15,12,10,17,10,26,0.00,5,,149
2011-10-5,62,54,46,48,45,41,88,72,45,29.80,29.71,29.60,15,11,8,17,8,28,0.14,6,Rain,172
2011-10-6,46,40,35,39,37,34,100,88,76,29.93,29.73,29.58,15,11,7,23,9,25,0.38,7,Rain,133
2011-10-7,44,40,35,39,36,32,93,83,66,30.13,30.03,29.93,15,11,10,12,7,,0.00,5,Rain,130
2011-10-8,75,57,39,57,39,37,100,85,53,30.35,30.17,30.09,20,10,3,7,4,,0.09,6,Rain,117
2011-10-9,57,46,35,41,37,34,100,83,48,30.24,30.16,30.05,15,12,10,9,5,,0.00,0,,141
2011-10-10,64,50,37,46,38,34,93,74,34,30.07,30.02,29.94,15,11,10,16,3,23,0.00,3,,113
2011-10-11,66,57,48,46,45,41,93,77,40,30.14,30.03,29.99,15,12,10,18,4,23,0.00,5,,136
2011-10-12,66,52,39,45,40,36,100,73,37,30.30,30.23,30.15,15,12,10,13,5,,0.00,1,,80
2011-10-13,66,52,37,46,40,36,93,74,42,30.25,30.16,30.05,15,12,10,7,3,,0.00,0,,142
2011-10-14,69,55,41,46,40,36,87,67,28,30.16,30.09,30.06,15,12,10,6,2,,0.00,0,,184
2011-10-15,80,62,44,54,43,39,87,68,23,30.12,30.06,29.99,15,12,10,7,3,,0.00,2,,135
2011-10-16,73,58,42,46,43,37,82,66,27,30.09,30.05,30.01,15,12,10,30,4,36,0.00,2,,92
2011-10-17,60,52,42,46,41,36,87,69,44,30.39,30.29,30.14,15,12,8,29,13,36,0.07,3,,322
2011-10-18,59,46,33,39,35,28,93,75,36,30.44,30.37,30.26,15,12,10,7,1,,0.00,0,,135
2011-10-19,66,50,35,46,36,30,93,71,32,30.25,30.13,29.98,15,12,10,10,3,,0.00,0,,131
2011-10-20,64,50,37,45,39,34,100,72,40,30.21,30.14,30.09,15,12,2,9,3,,0.00,0,,118
2011-10-21,68,54,39,45,38,34,87,65,37,30.25,30.21,30.17,15,12,7,17,4,,0.00,1,,127
2011-10-22,64,52,39,48,38,34,87,72,37,30.36,30.30,30.25,15,12,10,8,2,,0.00,1,,129
2011-10-23,62,50,37,43,37,32,100,74,37,30.33,30.26,30.15,15,12,10,6,1,,0.00,0,,137
2011-10-24,71,54,37,41,36,28,87,58,29,30.15,30.04,29.93,15,12,10,16,5,18,0.00,3,,196
2011-10-25,55,50,44,50,36,27,94,59,46,30.11,30.06,30.00,15,12,10,22,11,23,0.00,5,,315
2011-10-26,48,42,37,39,27,16,75,57,39,30.23,30.14,30.06,15,11,10,23,11,28,0.00,1,,331
2011-10-27,48,38,28,27,23,19,86,68,34,30.29,30.24,30.20,15,11,10,9,5,,0.00,1,,123
2011-10-28,48,36,24,28,23,19,100,67,34,30.38,30.30,30.24,15,11,10,10,4,,0.00,1,,126
2011-10-29,53,40,28,34,25,18,81,64,32,30.27,30.24,30.22,15,11,10,9,2,,0.00,1,,120
2011-10-30,57,44,30,39,32,27,93,74,36,30.37,30.29,30.24,15,12,10,7,2,,0.00,0,,130
2011-10-31,62,47,32,39,33,27,87,71,39,30.24,30.14,29.98,15,12,10,9,3,,0.00,1,,146